Theta_e
311 311 311 311 311 312 312 313 313 313 314 315 316 316 318 319 318 309 303 307 309 319 315 301 302 300 299 297 299 303 294 291 294 296 299 307 306 312 316 307 309 314 313 310 310
309 309 309 310 310 310 311 311 312 312 313 314 314 315 317 318 308 302 311 320 323 322 302 297 296 298 293 294 294 291 288 291 296 298 300 304 303 301 297 297 297 305 308 308 309
307 307 307 307 307 308 308 309 309 310 311 313 313 314 317 314 301 301 315 321 323 316 300 298 297 296 291 291 290 291 288 292 292 294 296 294 296 296 293 293 296 299 308 307 305
305 305 305 306 306 307 307 307 308 309 310 311 312 313 316 307 293 302 317 323 322 307 300 297 293 290 288 288 291 286 291 293 294 295 294 293 294 293 293 294 298 299 303 304 307
304 304 304 305 305 305 306 306 307 307 308 309 311 312 308 298 298 309 317 317 311 304 299 295 291 289 287 289 290 288 289 291 293 293 292 292 291 291 292 293 296 298 301 301 303
304 303 303 303 304 305 305 306 306 307 309 310 310 311 301 290 305 303 311 312 308 305 298 294 292 293 289 289 288 289 290 290 291 291 291 291 292 291 295 294 294 296 297 299 301
303 303 303 302 303 304 305 306 306 307 311 311 310 308 301 296 297 299 298 303 304 302 298 298 295 292 290 288 291 291 286 289 289 289 289 292 289 290 296 296 295 296 297 299 300
302 302 302 301 303 304 305 304 307 310 312 311 312 307 293 299 298 298 296 295 298 298 297 298 296 293 289 290 288 285 284 280 289 291 291 291 283 290 292 291 292 295 296 297 299
301 301 301 301 302 304 303 305 310 310 311 313 304 297 289 298 291 297 295 292 294 294 294 298 293 289 288 283 280 281 278 280 284 290 289 289 286 292 295 293 292 290 293 296 297
301 301 300 301 302 302 301 307 309 299 298 306 296 290 289 284 290 296 295 295 290 290 290 289 286 282 282 280 276 278 277 281 282 286 288 286 287 291 291 291 290 290 290 292 295
300 300 300 301 301 300 295 290 285 285 288 285 287 284 284 288 293 292 291 292 291 287 280 284 279 277 281 281 283 283 282 282 285 288 286 285 286 289 292 292 293 294 291 293 295
300 300 300 300 300 298 292 286 284 285 282 289 286 285 286 287 284 287 289 282 284 280 283 281 277 282 284 284 282 282 280 280 284 287 285 285 286 290 290 290 293 294 290 292 294
299 299 300 299 298 290 287 287 292 290 281 284 287 283 283 286 282 282 285 282 281 279 281 278 281 286 284 283 281 281 280 280 280 284 286 284 283 286 290 289 290 292 292 293 294
299 299 299 298 290 287 284 291 292 291 270 274 280 282 283 285 279 286 285 283 280 278 278 279 285 282 281 282 284 280 286 285 284 282 278 283 276 284 288 290 291 291 292 294 294
299 298 298 297 286 284 288 292 293 289 261 275 278 287 284 279 280 280 285 282 277 275 277 274 274 275 278 281 283 282 285 283 282 279 280 281 278 282 287 285 289 292 291 289 288
298 297 296 289 286 287 291 292 290 270 257 268 277 276 276 278 278 279 281 283 282 276 275 274 278 279 279 277 278 282 284 281 281 278 274 279 278 279 283 285 288 292 295 287 287
298 296 292 290 283 290 291 286 268 261 270 265 270 275 274 273 274 275 274 273 270 266 266 271 272 277 278 272 277 276 273 273 270 270 271 279 275 279 286 287 288 288 284 284 286
297 297 291 289 290 289 285 271 260 261 262 275 274 274 271 273 272 273 271 270 272 270 266 264 263 272 276 274 272 273 273 272 268 271 272 277 273 278 288 289 290 285 285 285 285
296 287 283 288 290 287 274 261 260 268 273 272 273 268 263 272 271 270 269 266 267 270 264 265 265 273 275 277 276 271 270 275 271 273 271 277 280 285 285 284 284 283 283 283 283
284 283 281 289 289 280 269 265 265 276 276 275 266 270 257 262 265 266 268 268 270 274 274 270 263 272 274 277 277 275 276 270 274 268 268 275 276 276 280 280 281 280 280 281 282
283 275 283 289 285 274 263 259 271 277 277 273 271 266 269 266 267 262 265 271 271 273 274 269 265 267 272 269 268 270 268 270 270 273 269 269 271 281 279 280 279 279 280 280 279
280 268 284 286 270 262 259 269 278 275 277 275 273 273 268 270 264 264 264 270 275 273 270 270 266 265 266 271 275 272 269 270 264 263 266 270 273 282 282 281 280 278 278 278 278
272 272 284 279 263 258 265 272 275 274 274 273 273 274 273 270 263 270 271 275 276 273 265 270 268 258 262 265 271 268 270 271 270 270 266 265 269 281 283 280 279 276 276 276 276
272 265 270 275 273 267 262 266 268 276 274 274 272 273 271 269 272 264 270 275 276 275 279 274 257 258 259 262 267 264 267 270 268 264 267 268 270 275 278 275 275 275 275 274 274
272 267 267 261 263 264 267 271 271 271 273 275 271 269 264 260 267 266 271 272 274 276 274 269 257 258 265 267 268 267 266 268 267 269 266 269 271 273 273 273 274 274 275 274 273
270 267 268 264 269 265 266 268 271 272 270 267 266 271 272 262 267 267 268 269 269 270 266 267 260 264 258 268 268 265 267 270 272 272 272 273 271 275 276 276 274 274 273 273 272
276 276 273 270 265 263 265 271 272 273 274 275 271 272 271 273 272 272 273 274 273 269 269 264 258 258 255 267 265 254 268 268 270 273 271 267 271 275 273 273 272 273 273 273 273
Wind_Speed
19 19 19 18 18 18 18 17 18 17 17 17 17 17 17 18 15 5 8 12 8 11 3 3 2 4 2 4 5 2 5 12 18 17 25 14 13 11 14 6 4 6 5 4 6
20 20 20 20 20 20 20 20 19 19 18 17 17 16 17 16 5 9 8 9 8 10 6 6 5 6 3 5 4 7 7 13 9 10 14 15 13 9 7 10 6 7 4 5 5
21 21 20 20 20 20 20 20 20 18 17 16 15 14 16 12 5 5 8 6 11 8 4 3 4 3 6 3 6 8 15 13 11 10 8 12 19 7 8 12 7 8 6 8 5
22 23 24 24 25 25 24 23 21 18 17 14 14 11 11 4 6 5 6 6 8 4 3 4 4 4 5 9 9 10 9 15 13 9 8 13 17 16 11 17 9 15 10 8 11
22 22 23 24 25 25 24 23 22 21 19 15 13 8 3 1 7 9 7 6 3 2 4 5 6 4 6 6 8 14 12 14 17 15 15 12 20 24 26 10 12 13 21 19 15
24 25 25 26 26 25 24 24 23 22 20 14 8 1 1 2 7 15 8 4 4 3 4 5 6 6 7 8 10 5 7 13 8 9 6 10 18 9 25 7 14 18 22 24 21
25 26 26 27 26 25 26 26 25 20 18 9 3 4 3 5 12 17 16 4 3 4 7 7 8 6 6 7 9 9 15 18 16 8 8 2 25 29 30 16 22 20 21 22 21
27 27 27 27 26 28 28 30 16 10 7 6 7 6 3 12 16 20 11 8 8 6 4 8 6 6 5 6 9 7 5 5 3 14 9 13 36 2 10 9 15 19 19 23 22
27 28 27 28 27 28 32 23 7 6 8 9 6 4 7 18 24 16 18 11 8 5 5 6 6 5 5 7 6 5 15 17 23 15 8 15 28 15 19 17 20 9 12 15 12
28 27 27 28 26 28 29 10 9 10 11 1 11 6 16 17 17 16 26 15 7 6 5 3 3 6 6 7 18 9 9 15 18 7 18 17 30 22 7 8 13 12 10 10 12
28 27 27 27 23 28 17 6 10 10 14 7 2 9 13 19 6 19 26 14 10 8 7 4 4 19 21 9 21 20 21 23 22 6 12 15 25 27 16 17 24 20 13 17 18
28 27 27 26 17 20 20 10 5 6 5 2 16 11 17 15 9 23 24 16 9 12 7 5 22 20 18 16 17 23 28 30 30 19 11 16 26 30 16 12 20 20 15 16 17
27 26 27 28 7 7 14 13 5 4 4 11 13 20 19 13 15 24 20 15 7 11 9 13 21 23 22 23 22 27 23 26 24 22 18 21 22 27 18 11 15 16 15 15 22
26 24 26 28 8 6 4 11 6 1 8 14 11 10 16 15 11 19 19 11 11 11 13 16 13 21 22 23 25 30 24 28 27 20 19 8 23 26 23 22 15 17 19 24 19
24 23 24 19 4 4 8 9 6 2 9 18 7 8 10 15 13 21 12 7 11 15 8 14 24 24 20 17 29 24 14 15 20 25 24 25 16 23 17 15 19 20 16 8 7
23 22 21 6 3 3 9 8 2 8 2 8 6 14 15 14 8 16 7 11 6 6 16 19 14 8 11 33 19 21 22 18 20 13 19 28 18 17 22 18 16 17 19 6 9
22 19 14 5 8 14 7 3 8 12 6 11 7 10 9 16 8 19 15 9 8 13 23 13 22 19 18 38 26 30 25 7 6 7 11 11 11 17 20 10 15 11 8 9 10
19 14 11 4 11 9 5 9 15 6 5 4 7 12 6 14 6 15 16 5 5 11 13 14 20 24 28 25 17 33 15 11 12 8 4 6 7 7 23 13 16 14 9 11 14
14 5 5 13 14 4 8 12 9 5 4 5 10 5 6 7 5 8 11 2 6 7 10 12 16 33 24 22 13 14 18 26 10 4 4 3 6 10 16 17 18 15 14 14 15
2 4 5 15 13 7 10 8 3 2 3 4 3 3 3 7 7 8 4 4 10 10 12 8 25 12 26 16 3 9 19 11 7 3 6 4 4 4 15 14 15 18 17 16 16
4 5 5 14 6 9 8 3 1 3 5 1 3 4 3 5 6 5 5 11 2 18 10 12 3 21 11 11 20 7 13 10 8 10 7 2 6 12 15 13 14 14 16 17 17
3 5 6 7 8 3 3 5 3 2 2 2 2 2 2 9 5 3 5 6 11 10 14 4 6 8 19 20 9 3 10 11 7 11 9 7 3 14 15 14 14 14 15 17 17
3 2 6 6 6 4 5 1 1 3 3 1 2 2 2 6 6 7 6 11 9 16 5 5 4 10 12 7 10 8 15 17 14 9 11 7 8 20 11 14 15 15 15 15 16
4 4 6 6 2 6 3 3 2 4 3 3 4 1 1 9 7 8 15 9 15 12 16 9 1 6 8 16 16 17 20 18 11 7 11 15 23 18 16 16 17 16 15 14 15
4 2 6 2 5 2 3 3 2 2 1 2 3 5 3 4 11 7 10 12 16 16 4 3 5 5 12 17 20 20 21 17 17 19 12 24 21 13 10 10 11 12 13 15 16
4 4 5 2 1 4 3 4 5 4 4 5 6 7 8 6 10 22 11 10 9 6 3 2 6 9 7 17 18 17 15 17 11 8 7 10 7 14 5 9 13 13 12 14 15
3 2 5 5 1 5 5 5 5 1 6 10 6 9 13 14 5 10 12 16 15 14 16 4 3 2 7 16 17 8 6 10 15 6 9 7 8 15 10 11 12 12 13 13 13
Wind_Direction
16 10 5 1 356 350 345 341 338 336 330 327 326 328 328 323 313 250 231 222 194 221 133 30 254 221 201 219 209 205 231 239 238 233 260 278 280 266 266 252 278 262 200 181 159
14 7 1 357 352 347 343 337 334 331 329 324 322 327 327 328 276 237 251 226 165 136 143 184 205 201 194 207 208 176 208 225 237 248 270 276 278 302 297 296 292 301 37 152 135
9 5 360 355 350 343 337 332 327 324 322 322 323 324 326 329 306 262 336 223 157 156 150 218 243 203 217 199 223 215 233 236 257 257 258 284 282 263 286 279 246 256 262 208 229
8 2 357 352 346 340 336 331 326 324 318 316 327 324 322 319 316 358 4 78 138 134 126 230 221 210 214 213 226 263 233 229 249 247 267 272 297 277 234 254 261 276 256 258 212
5 358 354 349 342 337 333 329 327 326 319 316 321 328 344 21 272 359 25 40 65 156 208 225 203 199 211 215 235 242 244 242 249 255 256 267 265 271 268 268 257 264 271 267 266
1 357 354 349 345 341 336 330 324 316 311 301 301 301 72 29 328 349 350 18 327 301 288 252 239 244 256 243 237 264 260 258 246 258 255 256 271 272 273 244 242 252 254 257 252
360 356 353 351 348 343 334 331 323 315 311 288 226 146 88 259 353 348 347 303 298 292 288 280 282 275 327 306 259 285 282 273 260 250 245 352 275 247 256 257 251 249 253 254 248
359 355 353 351 349 343 338 332 327 326 7 118 147 143 140 31 1 351 339 321 312 304 295 292 302 274 223 294 324 299 285 277 197 207 239 156 258 244 229 224 246 240 245 248 247
358 354 354 352 351 343 341 338 27 42 74 118 82 99 37 347 358 353 358 326 310 294 296 300 329 248 278 234 284 202 263 262 271 223 232 179 255 251 237 247 257 234 246 254 259
357 354 355 354 353 3 346 345 57 22 348 86 36 69 21 351 324 359 3 333 314 321 1 27 277 264 253 193 237 223 231 248 247 214 210 221 256 257 226 221 240 253 243 248 252
355 354 357 355 356 19 7 25 13 4 33 76 63 88 350 333 351 11 360 345 356 18 350 279 252 236 250 239 254 265 269 271 261 259 235 234 251 261 249 242 256 256 254 257 260
354 353 356 355 359 43 32 65 157 189 58 14 57 32 10 334 13 15 2 9 342 343 330 343 254 274 284 277 272 254 255 258 270 270 265 272 270 275 254 233 234 243 231 244 255
354 355 354 353 19 29 66 33 341 156 75 19 43 27 8 326 32 4 2 339 314 327 301 273 281 305 286 282 276 264 254 259 261 279 257 269 272 273 266 257 242 250 252 244 246
356 356 355 352 48 345 46 346 314 147 82 351 5 10 358 343 21 1 352 336 320 344 315 272 320 317 313 295 272 266 275 288 288 285 274 210 269 263 270 265 255 249 255 255 260
356 354 352 3 294 41 298 312 301 72 65 322 354 310 348 37 300 343 28 332 20 326 354 319 313 310 294 326 313 272 261 273 278 276 278 261 261 274 266 269 259 253 258 295 332
353 353 359 352 6 283 306 302 90 43 317 326 333 336 10 5 6 330 39 12 36 347 346 332 305 329 355 343 316 307 274 291 282 255 242 250 237 249 260 260 258 274 270 45 31
341 351 7 358 326 313 313 51 42 79 332 311 322 332 9 350 352 358 346 40 26 344 355 342 339 340 24 337 327 346 334 257 236 207 248 224 247 242 273 244 255 288 51 27 32
337 328 343 1 327 326 39 53 67 241 248 275 306 310 359 360 335 352 345 359 13 16 333 346 342 355 329 322 308 303 274 276 257 223 244 189 238 239 245 271 258 79 64 40 36
346 333 359 337 340 12 68 53 170 223 253 304 320 38 316 0 313 348 339 282 7 16 6 318 317 310 307 332 334 329 335 292 274 260 280 191 293 301 27 52 48 52 44 40 33
5 352 335 334 341 47 68 107 124 347 328 317 33 24 317 315 7 355 322 242 334 353 352 306 310 299 321 313 11 323 346 345 323 276 214 202 197 268 22 36 38 36 35 33 30
41 44 280 339 37 46 86 169 142 319 20 323 338 301 306 341 319 298 257 299 24 333 326 307 233 309 332 338 328 20 11 11 294 326 333 337 87 34 39 40 46 42 39 33 28
44 42 293 2 51 46 73 165 200 261 324 302 60 262 231 331 298 294 269 283 328 331 323 261 276 300 309 307 103 55 15 14 341 329 307 268 84 63 31 29 47 46 40 36 29
74 238 318 61 79 1 325 323 205 220 236 246 260 102 311 326 323 273 286 301 320 339 300 317 340 325 327 342 319 334 341 334 313 279 298 323 286 20 25 32 38 41 35 30 26
70 30 336 28 102 116 96 282 302 242 230 140 240 19 347 309 281 275 293 301 322 319 316 10 303 175 288 286 294 301 309 301 294 282 296 275 293 5 351 31 25 24 29 26 25
41 257 177 318 335 68 88 212 240 274 193 141 295 191 195 286 297 253 300 303 313 310 305 157 248 164 273 281 291 291 290 300 283 258 258 280 302 354 21 23 24 22 18 20 22
96 76 351 242 231 88 262 246 207 254 160 267 197 273 277 218 231 288 296 301 273 301 18 313 261 311 285 299 296 301 311 336 319 342 337 309 3 359 12 21 24 21 18 23 18
311 355 103 272 268 92 230 213 216 87 270 229 199 311 284 278 251 250 262 274 261 266 276 244 190 349 265 306 323 350 356 1 342 42 329 0 354 346 10 28 23 18 18 14 13